TimeCDT,TemperatureF,Dew PointF,Humidity,Sea Level PressureIn,VisibilityMPH,Wind Direction,Wind SpeedMPH,Gust SpeedMPH,PrecipitationIn,Events,Conditions,WindDirDegrees,DateUTC
12:15 AM,73.4,68.0,83,29.89,10.0,South,15.0,25.3,N/A,,Clear,170,2012-10-23 05:15:00
12:35 AM,73.4,68.0,83,29.89,10.0,South,13.8,19.6,N/A,,Clear,170,2012-10-23 05:35:00
1:15 AM,73.4,68.0,83,29.89,10.0,South,13.8,21.9,N/A,,Clear,180,2012-10-23 06:15:00
1:55 AM,71.6,68.0,88,29.89,10.0,South,11.5,-,N/A,,Clear,190,2012-10-23 06:55:00
2:35 AM,71.6,68.0,88,29.89,10.0,South,12.7,16.1,N/A,,Clear,190,2012-10-23 07:35:00
2:55 AM,71.6,68.0,88,29.88,10.0,South,13.8,19.6,N/A,,Clear,190,2012-10-23 07:55:00
3:15 AM,71.6,68.0,88,29.88,10.0,South,13.8,-,N/A,,Clear,190,2012-10-23 08:15:00
3:35 AM,71.6,68.0,88,29.88,10.0,South,13.8,19.6,N/A,,Clear,190,2012-10-23 08:35:00
3:55 AM,71.6,68.0,88,29.88,10.0,South,13.8,19.6,N/A,,Clear,190,2012-10-23 08:55:00
4:15 AM,71.6,66.2,83,29.88,10.0,South,12.7,18.4,N/A,,Clear,190,2012-10-23 09:15:00
4:35 AM,71.6,66.2,83,29.87,10.0,South,10.4,23.0,N/A,,Clear,190,2012-10-23 09:35:00
4:55 AM,71.6,66.2,83,29.87,10.0,South,12.7,-,N/A,,Clear,190,2012-10-23 09:55:00
5:15 AM,71.6,66.2,83,29.88,10.0,South,12.7,19.6,N/A,,Clear,190,2012-10-23 10:15:00
5:55 AM,71.6,66.2,83,29.88,10.0,South,13.8,-,N/A,,Clear,190,2012-10-23 10:55:00
6:35 AM,69.8,68.0,94,29.90,10.0,South,11.5,-,N/A,,Clear,190,2012-10-23 11:35:00
6:55 AM,69.8,68.0,94,29.90,10.0,South,9.2,-,N/A,,Clear,190,2012-10-23 11:55:00
7:15 AM,69.8,68.0,94,29.91,10.0,South,10.4,-,N/A,,Clear,190,2012-10-23 12:15:00
7:35 AM,69.8,68.0,94,29.91,10.0,North,-9999.0,-,N/A,,Clear,0,2012-10-23 12:35:00
7:55 AM,69.8,68.0,94,29.91,10.0,South,10.4,-,N/A,,Clear,180,2012-10-23 12:55:00
8:55 AM,71.6,68.0,88,29.93,10.0,South,12.7,18.4,N/A,,Clear,180,2012-10-23 13:55:00
9:35 AM,73.4,68.0,83,29.93,10.0,South,12.7,18.4,N/A,,Clear,190,2012-10-23 14:35:00
10:15 AM,77.0,68.0,74,29.94,10.0,SSW,15.0,24.2,N/A,,Clear,200,2012-10-23 15:15:00
10:55 AM,78.8,66.2,65,29.94,10.0,SSW,20.7,27.6,N/A,,Scattered Clouds,200,2012-10-23 15:55:00
11:15 AM,80.6,66.2,61,29.94,10.0,SSW,15.0,24.2,N/A,,Scattered Clouds,210,2012-10-23 16:15:00
11:55 AM,80.6,64.4,58,29.94,10.0,SSW,13.8,24.2,N/A,,Overcast,210,2012-10-23 16:55:00
12:15 PM,82.4,64.4,54,29.94,10.0,SW,11.5,21.9,N/A,,Mostly Cloudy,220,2012-10-23 17:15:00
12:35 PM,80.6,64.4,58,29.94,10.0,SSW,17.3,23.0,N/A,,Mostly Cloudy,210,2012-10-23 17:35:00
1:15 PM,82.4,64.4,54,29.93,10.0,SW,10.4,-,N/A,,Mostly Cloudy,220,2012-10-23 18:15:00
1:35 PM,82.4,64.4,54,29.92,10.0,SW,13.8,19.6,N/A,,Mostly Cloudy,230,2012-10-23 18:35:00
1:55 PM,82.4,64.4,54,29.91,10.0,SSW,17.3,-,N/A,,Overcast,210,2012-10-23 18:55:00
2:35 PM,84.2,64.4,51,29.89,10.0,SSW,11.5,20.7,N/A,,Mostly Cloudy,200,2012-10-23 19:35:00
2:55 PM,84.2,64.4,51,29.89,10.0,SSW,13.8,-,N/A,,Mostly Cloudy,210,2012-10-23 19:55:00
3:15 PM,82.4,64.4,54,29.88,10.0,SSW,13.8,19.6,N/A,,Mostly Cloudy,210,2012-10-23 20:15:00
3:35 PM,82.4,64.4,54,29.88,10.0,SSW,11.5,-,N/A,,Mostly Cloudy,210,2012-10-23 20:35:00
3:55 PM,86.0,64.4,48,29.87,10.0,South,11.5,16.1,N/A,,Mostly Cloudy,190,2012-10-23 20:55:00
4:15 PM,84.2,62.6,48,29.87,10.0,SSW,15.0,-,N/A,,Scattered Clouds,200,2012-10-23 21:15:00
4:35 PM,84.2,62.6,48,29.87,10.0,South,13.8,-,N/A,,Scattered Clouds,170,2012-10-23 21:35:00
4:55 PM,84.2,62.6,48,29.87,10.0,South,12.7,18.4,N/A,,Scattered Clouds,190,2012-10-23 21:55:00
5:15 PM,84.2,62.6,48,29.86,10.0,South,11.5,18.4,N/A,,Scattered Clouds,190,2012-10-23 22:15:00
5:35 PM,84.2,62.6,48,29.85,10.0,South,13.8,21.9,N/A,,Scattered Clouds,180,2012-10-23 22:35:00
5:55 PM,84.2,62.6,48,29.85,10.0,South,9.2,18.4,N/A,,Clear,170,2012-10-23 22:55:00
6:15 PM,82.4,62.6,51,29.86,10.0,North,-9999.0,-,N/A,,Clear,0,2012-10-23 23:15:00
6:35 PM,80.6,62.6,54,29.86,10.0,North,-9999.0,-,N/A,,Clear,0,2012-10-23 23:35:00
6:55 PM,80.6,62.6,54,29.86,10.0,South,11.5,-,N/A,,Clear,180,2012-10-23 23:55:00
7:15 PM,78.8,62.6,57,29.87,10.0,South,6.9,-,N/A,,Clear,170,2012-10-24 00:15:00
7:35 PM,78.8,62.6,57,29.88,10.0,South,8.1,-,N/A,,Clear,170,2012-10-24 00:35:00
7:55 PM,77.0,62.6,61,29.88,10.0,SSE,8.1,-,N/A,,Clear,160,2012-10-24 00:55:00
8:15 PM,77.0,64.4,65,29.89,10.0,SSE,8.1,-,N/A,,Clear,160,2012-10-24 01:15:00
8:35 PM,77.0,64.4,65,29.90,10.0,SSE,9.2,-,N/A,,Clear,160,2012-10-24 01:35:00
8:55 PM,77.0,64.4,65,29.90,10.0,South,9.2,-,N/A,,Clear,170,2012-10-24 01:55:00
9:15 PM,77.0,64.4,65,29.90,10.0,South,12.7,17.3,N/A,,Clear,170,2012-10-24 02:15:00
9:35 PM,75.2,64.4,69,29.90,10.0,South,10.4,20.7,N/A,,Clear,170,2012-10-24 02:35:00
9:55 PM,75.2,64.4,69,29.90,10.0,South,11.5,18.4,N/A,,Clear,170,2012-10-24 02:55:00
10:15 PM,75.2,64.4,69,29.91,10.0,South,12.7,20.7,N/A,,Clear,170,2012-10-24 03:15:00
10:35 PM,73.4,64.4,73,29.92,10.0,SSE,9.2,18.4,N/A,,Clear,160,2012-10-24 03:35:00
10:55 PM,73.4,64.4,73,29.92,10.0,South,6.9,-,N/A,,Clear,170,2012-10-24 03:55:00
11:15 PM,73.4,64.4,73,29.92,10.0,South,10.4,-,N/A,,Clear,170,2012-10-24 04:15:00
11:35 PM,73.4,64.4,73,29.92,10.0,South,10.4,-,N/A,,Clear,170,2012-10-24 04:35:00
11:55 PM,73.4,64.4,73,29.92,10.0,South,9.2,-,N/A,,Clear,170,2012-10-24 04:55:00